DL3NBY Weather Reports


time (UTC)temp
C
wind
direction
speed
KPH
gust
KPH
rain 1hr
cm
rain 24hr
cm
rain mn
cm
humidity
%
barometer
mb
20260508070035 10 74 1.6 4.8 0.00 0.05 0.03 89 1017.0
20260508064048 10 90 0.0 3.2 0.00 0.05 0.03 91 1016.9
20260508063025 9 90 0.0 4.8 0.00 0.05 0.03 92 1016.8
20260508062022 9 90 0.0 3.2 0.00 0.05 0.03 93 1016.6
20260508061018 9 0 0.0 3.2 0.00 0.05 0.03 95 1016.6
20260508060015 8 0.0 3.2 0.00 0.05 0.03 95 1016.6
20260508055113 8 0.0 3.2 0.00 0.05 0.03 96 1016.5
20260508054109 8 0.0 1.6 0.00 0.05 0.03 97 1016.4
20260508053106 8 0.0 1.6 0.00 0.05 0.03 97 1016.3
20260508052103 8 0.0 0.0 0.00 0.05 0.03 98 1016.4
20260508051059 8 0.0 0.0 0.00 0.05 0.03 98 1016.4
20260508044053 8 0.0 0.0 0.00 0.18 0.03 99 1016.0
20260508043047 7 0.0 0.0 0.00 0.20 0.03 99 1016.0
20260508041041 7 0.0 1.6 0.00 0.23 0.03 99 1016.0
20260508040038 7 0.0 1.6 0.00 0.23 0.03 99 1016.0
20260508035038 7 0.0 0.0 0.00 0.23 0.03 99 1015.8
20260508034032 7 0.0 0.0 0.00 0.23 0.03 99 1015.9
20260508033029 7 0.0 0.0 0.00 0.23 0.03 99 1015.8
20260508031103 7 0.0 0.0 0.00 0.23 0.03 99 1015.7
20260508030020 7 0.0 0.0 0.00 0.23 0.03 99 1015.6
20260508025016 8 0.0 0.0 0.00 0.23 0.03 99 1015.6
20260508024113 8 0.0 0.0 0.00 0.23 0.03 99 1015.7
20260508023110 8 0.0 0.0 0.00 0.23 0.03 99 1015.7
20260508021104 8 0.0 0.0 0.00 0.28 0.03 99 1015.7
20260508020121 8 0.0 0.0 0.00 0.33 0.03 99 1015.7
20260508015057 8 0.0 0.0 0.00 0.33 0.03 99 1015.8
20260508014054 8 0.0 0.0 0.00 0.33 0.03 99 1015.8
20260508013051 8 0.0 0.0 0.00 0.36 0.03 99 1015.9
20260508011044 8 0.0 0.0 0.00 0.38 0.03 99 1015.8
20260508010041 8 0.0 0.0 0.00 0.43 0.03 99 1015.9
20260508004035 8 0.0 0.0 0.00 0.48 0.03 99 1015.9
20260508003032 8 0.0 0.0 0.00 0.51 0.03 99 1015.9
20260508002028 8 0.0 0.0 0.03 0.51 0.03 99 1016.0
20260507235019 7 0.0 0.0 0.03 0.53 0.03 99 1016.0
20260507232110 8 0.0 0.0 0.00 0.51 0.00 99 1016.0
20260507225100 8 0.0 0.0 0.00 0.51 0.00 99 1016.0
20260507224057 8 0.0 0.0 0.00 0.51 0.00 99 1015.9
20260507223114 8 0.0 0.0 0.00 0.51 0.00 99 1015.8
20260507222051 8 0.0 0.0 0.00 0.51 0.00 99 1015.9
20260507221047 8 0.0 1.6 0.00 0.51 0.00 99 1015.9
20260507220045 8 0.0 0.0 0.00 0.51 0.00 99 1015.8
20260507215042 8 0.0 0.0 0.00 0.51 0.51 99 1015.8
20260507214038 8 0.0 0.0 0.00 0.51 0.51 99 1015.8
20260507213035 8 0.0 0.0 0.00 0.51 0.51 99 1015.6
20260507212032 8 0.0 0.0 0.00 0.51 0.51 99 1015.7
20260507211029 8 0.0 3.2 0.00 0.51 0.51 99 1015.7
20260507210026 8 0.0 0.0 0.00 0.51 0.51 99 1015.7
20260507205022 8 0.0 3.2 0.00 0.51 0.51 99 1015.8
20260507204019 8 0.0 0.0 0.00 0.51 0.51 99 1015.6
20260507203016 8 0.0 3.2 0.00 0.51 0.51 99 1015.6
20260507201110 9 27 0.0 4.8 0.00 0.51 0.51 99 1015.3
20260507200106 9 68 0.0 4.8 0.00 0.51 0.51 99 1015.2
20260507192054 9 0.0 0.0 0.00 0.51 0.51 99 1014.8
20260507191050 9 0.0 0.0 0.00 0.51 0.51 99 1014.6
20260507190047 9 0.0 0.0 0.00 0.51 0.51 99 1014.4
20260507185044 9 0.0 0.0 0.00 0.51 0.51 99 1014.4
20260507184101 9 0.0 0.0 0.00 0.51 0.51 99 1014.3
20260507183038 9 0.0 0.0 0.03 0.51 0.51 99 1014.3
20260507182034 10 0.0 0.0 0.03 0.51 0.51 98 1014.2
20260507181031 10 0.0 0.0 0.03 0.51 0.51 98 1014.2
20260507180052 10 337 0.0 4.8 0.03 0.51 0.51 98 1014.0
20260507175045 10 270 0.0 3.2 0.03 0.51 0.51 98 1013.9
20260507174022 10 0.0 3.2 0.03 0.51 0.51 97 1013.9
20260507172016 11 0.0 1.6 0.00 0.48 0.48 96 1013.7
20260507170110 11 293 0.0 4.8 0.00 0.48 0.48 95 1013.5
20260507165106 11 135 1.6 6.4 0.00 0.48 0.48 95 1013.5
20260507164104 11 240 1.6 6.4 0.00 0.48 0.48 94 1013.5
20260507163100 11 247 1.6 4.8 0.00 0.48 0.48 94 1013.5
20260507162057 11 240 0.0 4.8 0.00 0.48 0.48 93 1013.5
20260507160051 11 211 1.6 8.0 0.00 0.48 0.48 95 1013.4
20260507155047 11 244 1.6 6.4 0.00 0.48 0.48 95 1013.4
20260507154044 10 0.0 4.8 0.00 0.48 0.48 97 1013.4
20260507153041 11 276 1.6 6.4 0.00 0.48 0.48 97 1013.3
20260507151035 11 355 1.6 9.7 0.00 0.48 0.48 93 1013.3
20260507150032 11 218 1.6 9.7 0.00 0.48 0.48 94 1013.3
20260507145027 10 267 1.6 6.4 0.00 0.48 0.48 95 1013.3
20260507143021 10 199 1.6 6.4 0.00 0.48 0.48 95 1013.3
20260507142018 10 279 1.6 6.4 0.00 0.48 0.48 95 1013.3
20260507141015 10 250 3.2 9.7 0.00 0.48 0.48 95 1013.2
20260507140112 10 255 1.6 9.7 0.00 0.48 0.48 95 1013.2
20260507134105 10 315 1.6 6.4 0.00 0.48 0.48 97 1013.1
20260507133103 10 250 1.6 11.3 0.00 0.48 0.48 96 1013.1
20260507132119 10 263 1.6 6.4 0.00 0.48 0.48 97 1013.0
20260507131056 10 225 3.2 12.9 0.00 0.48 0.48 97 1013.0
20260507130053 10 228 1.6 4.8 0.00 0.48 0.48 96 1012.9
20260507125050 10 270 0.0 6.4 0.00 0.48 0.48 96 1012.9
20260507124107 10 232 1.6 6.4 0.00 0.48 0.48 96 1012.8
20260507123043 11 245 3.2 12.9 0.00 0.48 0.48 94 1012.7
20260507122040 10 226 4.8 12.9 0.00 0.48 0.48 94 1012.6
20260507121037 10 284 1.6 8.0 0.00 0.48 0.48 95 1012.6
20260507120052 10 257 1.6 6.4 0.00 0.48 0.48 96 1012.5
20260507114054 11 221 3.2 8.0 0.00 0.48 0.48 93 1012.3
20260507113049 11 191 1.6 8.0 0.00 0.48 0.48 93 1012.2
20260507112045 11 275 1.6 8.0 0.00 0.48 0.48 94 1012.2
20260507111039 10 260 3.2 8.0 0.00 0.48 0.48 95 1012.2
20260507110036 10 263 1.6 6.4 0.00 0.48 0.48 95 1012.1
20260507105114 10 201 1.6 11.3 0.00 0.48 0.48 96 1012.0
20260507104030 10 180 0.0 6.4 0.00 0.48 0.48 96 1012.1
20260507101020 11 245 3.2 6.4 0.00 0.48 0.48 95 1011.6
20260507100017 11 241 1.6 11.3 0.00 0.48 0.48 93 1011.6
20260507095114 10 203 0.0 6.4 0.00 0.48 0.48 95 1011.6
20260507094110 10 247 1.6 6.4 0.00 0.48 0.48 96 1011.4
20260507093106 10 230 3.2 11.3 0.00 0.48 0.48 96 1011.4
20260507091116 10 288 1.6 9.7 0.00 0.48 0.48 96 1011.1
20260507085048 10 236 1.6 8.0 0.00 0.48 0.48 97 1010.8
20260507084044 10 207 0.0 6.4 0.00 0.48 0.48 98 1010.7
20260507083041 10 277 3.2 16.1 0.00 0.48 0.48 98 1010.7
20260507075028 10 207 3.2 9.7 0.00 0.48 0.48 99 1010.2
20260507074024 10 256 3.2 9.7 0.00 0.48 0.48 99 1010.0
20260507073021 10 225 3.2 8.0 0.00 0.48 0.48 99 1009.8
20260507072018 10 238 3.2 8.0 0.00 0.48 0.48 99 1009.7
20260507071115 10 0.0 3.2 0.00 0.48 0.48 99 1009.6